Meath Environmental Platform

Observations for Trim Market St

Time AQI Temp °C Hum % Pres Pa CO μg/m³ H₂S μg/m³ NO μg/m³ NO₂ μg/m³ O₃ μg/m³ SO₂ μg/m³ PM1 μg/m³ PM2.5 μg/m³ PM10 μg/m³
Wednesday 15 July 2026
19:14 1 26 46 62,162 0 0 0 5.86 35.61 0 7.13 9.88 12.89
19:12 1 26 46 62,347 0 0 0 4.79 35.6 0 5.7 9.37 12.13
19:11 1 26 46 62,389 0 0 0 5.39 33.62 0 6.41 10.93 17.51
19:10 1 26.1 46 62,407 0 0 0 6.06 31.33 0 7.13 10.93 15.2
19:09 1 26.1 46 62,427 0 0 0 4.76 32.95 0 6.41 9.37 12.9
19:08 1 26.1 46 62,442 0 0 0 6.27 37.93 0 6.41 10.41 14.44
19:07 1 26.1 46 62,513 0 0 0 4.58 34.32 0 7.13 10.42 13.68
19:06 1 26.2 46 62,574 0 0 0 3.75 31.77 0 7.84 10.94 15.21
19:05 1 26.2 46 62,531 0 0 0 4.84 35.75 0 7.84 10.41 13.67
19:03 1 26.2 46 62,440 0 0 0 4.95 31.03 0 6.41 8.86 11.37
19:02 1 26.2 46 62,355 0 0 0 5.25 31.81 0 5.7 9.38 14.45
19:01 1 26.3 46 62,243 0 0 0 4.91 30.07 0 6.41 9.37 12.13
18:59 1 26.3 46 61,899 0 0 0 5.41 31.01 0 7.13 10.93 15.2
18:58 1 26.3 46 61,786 0 0 0 5.99 31.91 0 5.7 8.84 12.13
18:57 1 26.3 46 61,709 0 0 0 6.39 31.7 0 7.13 10.4 13.66
18:55 1 26.4 47 61,396 0 0 0 4.84 29.09 0 7.84 11.43 17.48
18:54 1 26.4 47 61,147 0 0 0 6.64 34.4 0 7.84 11.43 15.95
18:53 1 26.5 47 60,977 0 0 0 6.21 34.63 0 5.7 8.82 11.35
18:52 1 26.5 47 60,894 0 0 0 5.92 31.94 0 6.41 8.83 12.12
18:47 1 26.6 47 60,789 0 0 0 6.39 30.12 0 6.41 10.39 14.42